Regional Weather Roundup
Issued by NWS

Home | Current Version | Previous Version | Graphics & Text | Print | Product List | Glossary Off
Versions: 1 2 3 4 5 6 7 8 9 10 11 12 13 14 15 16 17 18 19 20 21 22 23 24 25 26 27 28 29 30 31 32 33 34 35 36 37 38 39 40 41 42 43 44 45 46 47 48 49 50

000
ASUS43 KMKX 281600
RWRWI

WISCONSIN REGIONAL WEATHER ROUNDUP
NATIONAL WEATHER SERVICE MILWAUKEE/SULLIVAN WI
1100 AM CDT TUE JUL 28 2015

NOTE: "FAIR" INDICATES FEW OR NO CLOUDS BELOW 12,000 FEET WITH NO
SIGNIFICANT WEATHER AND/OR OBSTRUCTIONS TO VISIBILITY.

WIZ001-002-006>008-014>016-023>028-281700-
NORTHWEST WISCONSIN

CITY           SKY/WX    TMP DP  RH WIND       PRES   REMARKS
SUPERIOR ARPT  CLOUDY    75  70  84 SW13      29.73R
ASHLAND        CLOUDY    78  69  73 S12G25    29.78F HX  80
HAYWARD        CLOUDY    73  68  84 S20G29    29.80F
SIREN          CLOUDY    73  69  89 S20       29.77R
CUMBERLAND     CLOUDY    70  68  94 S15G23    29.83S
RICE LAKE      LGT RAIN  70  69  95 SE16G24   29.81F
CHETEK         LGT RAIN  70  69  98 SE26G36   29.80F
LADYSMITH      CLOUDY    73  65  77 S14G21    29.93F
EAU CLAIRE     NOT AVBL
MENOMONIE      LGT RAIN  71  70  96 E14       29.84F
NEW RICHMOND   CLOUDY    75  70  85 S10       29.82R
OSCEOLA        CLOUDY    76  74  94 S12G21    29.84R
$$

WIZ003>005-009-010-017-018-281700-
NORTH CENTRAL WISCONSIN

CITY           SKY/WX    TMP DP  RH WIND       PRES   REMARKS
MANITOWISH WTR CLOUDY    71  64  77 S10G20    29.97S
ARBOR VITAE    CLOUDY    72  63  73 S13       29.99R
WOODRUFF       CLOUDY    72  63  73 S13       29.99R
RHINELANDER    CLOUDY    74  62  66 S14       30.01S
EAGLE RIVER    CLOUDY    73  61  66 S8        30.00S
LAND O LAKES   CLOUDY    73  62  67 S7        30.00F
PHILLIPS       CLOUDY    71  64  78 S13       29.96F
TOMAHAWK       CLOUDY    71  63  75 CALM      30.01S HAZE
MEDFORD        CLOUDY    72  65  80 S10       30.00F
MERRILL        NOT AVBL
$$

WIZ029-030-035-036-043>047-281700-
CENTRAL WISCONSIN

CITY           SKY/WX    TMP DP  RH WIND       PRES   REMARKS
WAUSAU         CLOUDY    78  64  61 S12       30.00R HX  80
MOSINEE        SUNNY     75  64  69 S12       30.03R
MARSHFIELD     CLOUDY    74  63  68 S9        30.01S
STEVENS POINT  CLOUDY    76  62  61 S13       30.02R
WAUPACA        PTSUNNY   83  64  52 S9G16     30.02R HX  85
WAUTOMA        NOT AVBL
WISC RAPIDS    CLOUDY    77  63  61 SW12      30.02S
CAMP DOUGLAS   NOT AVBL
$$

WIZ011>013-019>022-031-037>040-048>050-281700-
NORTHEAST WISCONSIN

CITY           SKY/WX    TMP DP  RH WIND       PRES   REMARKS
ANTIGO         CLOUDY    76  64  67 S10       30.03F
SHAWANO        CLOUDY    83  66  55 S6        30.01S HX  85
OCONTO         PTSUNNY   79  66  64 S7        30.01R HX  81
STURGEON BAY   PTSUNNY   81  64  57 S13       30.04S HX  82
GREEN BAY      PTSUNNY   83  67  58 S10       30.01S HX  85
MANITOWOC      NOT AVBL
APPLETON       PTSUNNY   82  63  51 S12       30.03R HX  83
CLINTONVILLE   PTSUNNY   82  63  51 S9        30.01S HX  83
OSHKOSH        PTSUNNY   83  65  54 S10       30.02R HX  85
$$

WIZ032>034-041-042-053>061-281700-
SOUTHWEST WISCONSIN

CITY           SKY/WX    TMP DP  RH WIND       PRES   REMARKS
LA CROSSE      HVY RAIN  71  69  93 CALM      29.98S VSB 1
SPARTA         RAIN      70  68  93 CALM      29.99F
VIROQUA        CLOUDY    69  69 100 SE7       29.98F
BOSCOBEL       LGT RAIN  75  71  87 CALM      29.96F
PRAIRIE DU CHI DRIZZLE   72  69  91 E6        29.95F
PLATTEVILLE    CLOUDY    75  72  90 SE3       30.00F
$$

WIZ056-057-062-063-064-067-068-281700-
SOUTH CENTRAL WISCONSIN

CITY           SKY/WX    TMP DP  RH WIND       PRES   REMARKS
REEDSBURG      CLOUDY    79  68  68 S6        29.99F HX  81
BARABOO/DELLS  CLOUDY    80  62  54 S9        30.00S HX  82
LONE ROCK      NOT AVBL
MINERAL POINT  LGT RAIN  77  70  78 S5        30.01F
MADISON        PTSUNNY   83  66  56 S12       30.00S HX  85
MIDDLETON      PTSUNNY   82  66  58 S8        30.02S HX  84
WATERTOWN      MOSUNNY   82  69  64 S6        30.01R HX  85
MONROE         PTSUNNY   79  70  73 S8        30.00F HX  81
JANESVILLE     MOSUNNY   84  66  54 S6        29.99F HX  86
$$

WIZ051-052-058>065-066-070>072-281700-
SOUTHEAST WISCONSIN

CITY           SKY/WX    TMP DP  RH WIND       PRES   REMARKS
MILWAUKEE      PTSUNNY   83  63  50 S10       30.01R HX  84
WAUKESHA       SUNNY     81  63  54 SE7       30.04R HX  82
MILWAUKEE/TIMM SUNNY     82  57  42 S9        30.03R HX  82
RACINE         MOSUNNY   82  65  56 SE10      30.03R HX  84
BURLINGTON     PTSUNNY   78  63  59 S5        30.02R HX  80
KENOSHA        MOSUNNY   83  65  54 S6        30.01R HX  85
FOND DU LAC    PTSUNNY   83  64  52 S12       30.02R HX  84
SHEBOYGAN      MOSUNNY   83  65  54 S10       30.03R HX  85
WEST BEND      PTSUNNY   79  61  53 CALM      30.03S HX  80
JUNEAU           N/A     81  66  61 S10       30.04R HX  83
$$

LSZ147-162-281700-
LAKE SUPERIOR

STATION/POSITION TIME  TEMP    WIND        PRES    WAVE
                       AIR SEA DIR/SP/G            HT/PER
                 (UTC) (F)     (DEG/KT/KT) (MB)    (FT/S)
W MID LAKE BUOY  1450   65 62  140/ 10/ 12 1011.6F   1/ 3
DEVILS ISLAND    1500   73     160/ 10/ 15 1010.1F
SAXON HARBOR     1500   75                 1010.8
$$

LMZ867-665-643>646-281700-
LAKE MICHIGAN

STATION/POSITION TIME  TEMP    WIND        PRES    WAVE
                       AIR SEA DIR/SP/G            HT/PER
                 (UTC) (F)     (DEG/KT/KT) (MB)    (FT/S)
CHAMBERS ISLAND  1500   80     160/  3/  9 1015.9S
S GREEN BAY BUOY 1500   77 76  160/  8/ 10 1017.3F
N MID LAKE BUOY  1450   71 70  190/  4/  4 1015.9F   0
NORTHPORT PIER   1500   78     160/  6/  9 1016.3S
SISTER BAY       1544   83     180/ 13/ 16   N/A
ALGOMA LAKESHORE 1512             CALM       N/A
KEWAUNEE LAKESHO 1500   70     150/  6/  6 1016.0R
SHEBOYGAN LAKESH 1500   72     140/ 10/ 10 1016.3R
PORT WASHINGTON  1540   76     150/  3/  5 1017.3R
ATWATER BUOY     1500   72     150/  6/  8 1017.4R
MILWAUKEE LAKESH 1515   72     140/ 11/ 12   N/A
KENOSHA   LAKESH 1500   74     140/  6/  7 1015.6R
$$

TC  - TEMPERATURE IN CELSIUS
VSB - VISIBILITY IN STATUTE MILES
WCI - WIND CHILL INDEX
HX  - HEAT INDEX



USA.gov is the U.S. government's official web portal to all federal, state and local government web resources and services.